TimeEST,TemperatureF,Dew PointF,Humidity,Sea Level PressureIn,VisibilityMPH,Wind Direction,Wind SpeedMPH,Gust SpeedMPH,PrecipitationIn,Events,Conditions,WindDirDegrees,DateUTC
12:51 AM,25.0,19.0,78,29.88,10.0,ENE,9.2,-,N/A,,Overcast,70,2012-12-29 05:51:00
1:51 AM,25.0,19.0,78,29.87,10.0,East,5.8,-,N/A,,Overcast,100,2012-12-29 06:51:00
2:51 AM,26.6,19.4,74,29.84,10.0,Calm,Calm,-,N/A,,Overcast,0,2012-12-29 07:51:00
3:21 AM,24.8,19.4,80,29.83,2.5,NE,3.5,-,0.00,Snow,Light Snow,50,2012-12-29 08:21:00
3:33 AM,24.8,19.4,80,29.82,1.8,ENE,4.6,-,0.00,Snow,Light Snow,60,2012-12-29 08:33:00
3:51 AM,25.0,21.0,85,29.84,1.5,ENE,5.8,-,N/A,Snow,Light Snow,60,2012-12-29 08:51:00
4:37 AM,24.8,21.2,86,29.75,1.5,NE,9.2,-,0.01,Snow,Light Snow,40,2012-12-29 09:37:00
4:51 AM,24.8,21.2,86,29.71,1.5,NE,12.7,-,N/A,Snow,Light Snow,40,2012-12-29 09:51:00
5:51 AM,25.0,21.9,88,29.75,1.5,ENE,6.9,-,0.04,Snow,Light Snow,70,2012-12-29 10:51:00
6:26 AM,24.8,21.2,86,29.68,1.0,ENE,9.2,-,0.02,Snow,Light Snow,70,2012-12-29 11:26:00
6:51 AM,25.0,23.0,92,29.74,1.0,NE,5.8,-,N/A,Snow,Light Snow,50,2012-12-29 11:51:00
7:51 AM,25.0,23.0,92,29.73,0.8,NNE,5.8,-,0.04,Snow,Light Snow,30,2012-12-29 12:51:00
8:18 AM,26.6,23.0,86,29.67,1.0,North,5.8,-,0.01,Snow,Light Snow,10,2012-12-29 13:18:00
8:41 AM,26.6,23.0,86,29.67,0.8,North,5.8,-,0.02,Snow,Light Snow,360,2012-12-29 13:41:00
8:51 AM,26.1,23.0,88,29.73,0.8,North,5.8,-,0.03,Snow,Light Snow,350,2012-12-29 13:51:00
9:07 AM,26.6,23.0,86,29.67,1.2,North,5.8,-,0.00,Snow,Light Snow,360,2012-12-29 14:07:00
9:41 AM,26.6,23.0,86,29.67,0.8,North,6.9,-,0.01,Snow,Light Snow,350,2012-12-29 14:41:00
9:51 AM,26.1,23.0,88,29.72,0.8,North,8.1,-,0.02,Snow,Light Snow,350,2012-12-29 14:51:00
10:32 AM,26.6,24.8,93,29.67,1.0,North,5.8,-,0.01,Snow,Light Snow,350,2012-12-29 15:32:00
10:51 AM,27.0,23.0,85,29.71,1.5,NNW,5.8,-,0.02,Snow,Light Snow,340,2012-12-29 15:51:00
11:51 AM,28.9,25.0,85,29.70,1.5,NW,9.2,-,0.00,Snow,Light Snow,320,2012-12-29 16:51:00
12:20 PM,28.4,24.8,86,29.66,2.0,NW,9.2,-,0.00,Snow,Light Snow,320,2012-12-29 17:20:00
12:42 PM,28.4,24.8,86,29.65,6.0,NW,9.2,-,0.00,Snow,Light Snow,320,2012-12-29 17:42:00
12:51 PM,28.0,24.1,85,29.70,6.0,NW,10.4,-,0.00,Snow,Light Snow,320,2012-12-29 17:51:00
1:45 PM,30.2,26.6,86,29.67,6.0,NW,10.4,-,0.00,Snow,Light Snow,320,2012-12-29 18:45:00
1:51 PM,30.0,26.1,85,29.71,6.0,NW,9.2,-,0.00,Snow,Light Snow,320,2012-12-29 18:51:00
2:51 PM,30.9,26.1,82,29.73,10.0,NW,11.5,-,0.00,,Overcast,310,2012-12-29 19:51:00
3:15 PM,30.2,26.6,86,29.70,4.0,WNW,12.7,-,0.00,Snow,Light Snow,300,2012-12-29 20:15:00
3:51 PM,30.9,27.0,85,29.76,6.0,NW,13.8,-,0.01,Snow,Light Snow,310,2012-12-29 20:51:00
4:04 PM,30.2,26.6,86,29.73,7.0,NW,15.0,21.9,0.00,Snow,Light Snow,310,2012-12-29 21:04:00
4:51 PM,30.0,25.0,82,29.81,5.0,NW,11.5,-,0.00,Snow,Light Snow,310,2012-12-29 21:51:00
5:51 PM,30.0,25.0,82,29.84,4.0,NW,9.2,-,0.00,Snow,Light Snow,310,2012-12-29 22:51:00
6:51 PM,30.0,25.0,82,29.87,4.0,WNW,10.4,-,0.00,Snow,Light Snow,290,2012-12-29 23:51:00
7:51 PM,28.9,25.0,85,29.89,6.0,WNW,9.2,-,0.00,Snow,Light Snow,290,2012-12-30 00:51:00
8:51 PM,28.9,25.0,85,29.90,6.0,WNW,6.9,-,0.00,Snow,Light Snow,290,2012-12-30 01:51:00
9:12 PM,28.4,24.8,86,29.86,6.0,WNW,5.8,-,0.00,Snow,Light Snow,300,2012-12-30 02:12:00
9:51 PM,28.9,25.0,85,29.91,4.0,West,6.9,-,0.00,Snow,Light Snow,270,2012-12-30 02:51:00
10:51 PM,28.9,25.0,85,29.94,6.0,West,11.5,-,0.00,Snow,Light Snow,270,2012-12-30 03:51:00
11:51 PM,28.9,25.0,85,29.95,9.0,WNW,11.5,18.4,0.00,Snow,Light Snow,300,2012-12-30 04:51:00